Location: Paddlesworth
(51.1000°N, 1.1333°E)
Time: 06:54:13
(UTC+00:00)

Okean 1 - Pass Details

Date: 24 September 2021
Orbit: 539 x 552 km, 82.5° (Epoch: 24 October)

Event Time Altitude Azimuth Distance (km) Brightness Sun altitude
Rises 05:00:27 0° 185° (S) 2,684 6.7 -7.8°
Reaches altitude 10° 05:02:35 10° 184° (S) 1,797 5.8 -7.5°
Maximum altitude 05:06:32 78° 98° (E) 559 3.5 -6.8°
Drops below altitude 10° 05:10:31 10° 13° (NNE) 1,816 6.2 -6.2°
Sets 05:12:42 0° 12° (NNE) 2,715 7.1 -5.9°
